This is the latest recevied weather packets stored in our database for station/object N5ZP. If no packets are shown the sender has not sent any weather packets the latest 10 day(s).
| Time | Temp. | Humidity | Pressure | Rain* | Wind** | Luminosity | Snow |
|---|---|---|---|---|---|---|---|
| 1777926025 | 28.89° C | 55% | 1004.9 hPa | 0 mm | - | 645 W/m² | - |
| 1777925721 | 28.33° C | 54% | 1004.6 hPa | 0 mm | - | 639 W/m² | - |
| 1777925419 | 28.33° C | 55% | 1004.9 hPa | 0 mm | - | 611 W/m² | - |
| 1777925115 | 28.33° C | 55% | 1005.1 hPa | 0 mm | - | 640 W/m² | - |
| 1777924812 | 27.78° C | 56% | 1005.4 hPa | 0 mm | - | 486 W/m² | - |
| 1777924508 | 27.78° C | 56% | 1005.2 hPa | 0 mm | - | 575 W/m² | - |
| 1777924205 | 27.78° C | 55% | 1005.5 hPa | 0 mm | - | 497 W/m² | - |
| 1777923901 | 27.78° C | 55% | 1005.7 hPa | 0 mm | - | 577 W/m² | - |
| 1777923597 | 27.78° C | 56% | 1005.7 hPa | 0 mm | - | 626 W/m² | - |
| 1777923294 | 27.78° C | 55% | 1006 hPa | 0 mm | - | 699 W/m² | - |
| 1777922993 | 27.78° C | 55% | 1006 hPa | 0 mm | - | 672 W/m² | - |
| 1777922689 | 27.78° C | 57% | 1006 hPa | 0 mm | - | 663 W/m² | - |
| 1777922389 | 27.78° C | 56% | 1006 hPa | 0 mm | - | 662 W/m² | - |
| 1777922086 | 27.22° C | 58% | 1006 hPa | 0 mm | - | 627 W/m² | - |
| 1777921781 | 27.78° C | 57% | 1006 hPa | 0 mm | - | 688 W/m² | - |
| 1777921477 | 27.22° C | 57% | 1006.3 hPa | 0 mm | - | 759 W/m² | - |
| 1777921174 | 26.67° C | 58% | 1006.5 hPa | 0 mm | - | 714 W/m² | - |
| 1777920872 | 26.67° C | 57% | 1006.4 hPa | 0 mm | - | 777 W/m² | - |
| 1777920567 | 26.67° C | 57% | 1006.8 hPa | 0 mm | - | 758 W/m² | - |
| 1777920263 | 26.67° C | 57% | 1006.8 hPa | 0 mm | - | 758 W/m² | - |
| 1777919959 | 26.67° C | 60% | 1006.8 hPa | 0 mm | - | 758 W/m² | - |
| 1777919657 | 26.67° C | 57% | 1006.5 hPa | 0 mm | - | 776 W/m² | - |
| 1777919355 | 26.67° C | 57% | 1006.6 hPa | 0 mm | - | 786 W/m² | - |
| 1777919051 | 26.67° C | 57% | 1007 hPa | 0 mm | - | 786 W/m² | - |
| 1777918748 | 27.78° C | 54% | 1007 hPa | 0 mm | - | 780 W/m² | - |
* Rain latest hour (hover to see other rain measurements)
** Current wind speed in m/s (hover to see current wind gust speed)